Portada
METAR-TAF:

METAR-TAF

Aeroports :

Payam

Karaj, Iran

latitud: 35-46-34N, longitud: 050-49-36E, altitud: 1271 m

Observació

L'informe es va fer fa 15 minuts, a les 09:00 UTC
Vent 6 kt del Nord
Temperatura 15°C
Humitat 29%
Pressió 1024 hPa
Visibilitat: 6000 m

METAR: OIIP 120900Z 01006KT 6000 NSC 15/M03 Q1024 A3024

Hora: 12:45 (09:15 UTC)


TAF: manca

Observacions i pronòstics meteorològics de més de 4000 aeroports (METAR i TAF).

Les estacions disponibles són els punts grocs i vermells al mapa.

Posi el ratolí al punt desitjat per veure el nom de l'estació.

Feu clic per veure les observacions i els pronòstics meteorològics.

Per canviar el mapa: feu clic els botons verds amb una creu de color negre per apropar; al botó verd amb un guió per allunyar la imatge; o en les fletxes verdes per a mapes adjacents.


METAR-TAF: